[ ตารางข้อมูล ] [ Min-Max ] [ วันนี้2 ] [ วันนี้4 ] [ เทียบ-A 3วัน ] [ เทียบ-B 4วัน ]   

วันนี้2   [ ◀ ช่วงเก่ากว่า ] [ ช่วงที่ 24 ] [ ช่วงใหม่กว่า ▶ ] [ ล่าสุด ]    [ 3 ชั่วโมง ] [ 6 ชั่วโมง ] [ 12 ชั่วโมง ] [ 24 ชั่วโมง ]   วันนี้2

อุณภูมิในตู้ Knockdown4529  ราย 6 ชั่วโมง  ที่วัดได้ ในช่วงวันเวลา 26/08/2026 (01:26) ถึง 26/08/2026 (07:26) 
ความชื้นในตู้ Knockdown4529  ราย 6 ชั่วโมง  ที่วัดได้ ในช่วงวันเวลา 26/08/2026 (01:26) ถึง 26/08/2026 (07:26) 
การใช้ไฟฟ้าในตู้ Knockdown4529  ราย 6 ชั่วโมง  ที่วัดได้ ในช่วงวันเวลา 26/08/2026 (01:26) ถึง 26/08/2026 (07:26) 

  DS18B20SHTC3PZEM-004TWiFi 
IDDate d/m/Y & Timedata1
สูง
data2
ต่ำ
data3
นอก
temp
pcb
hum
pcb
VoltAmpWattrssiTime
 16095  26/08/2026 07:23:51  27.3  27.4  26.5  28.5  66.5  234.1  0.04  4.5  -85  07:23 
 16094  26/08/2026 07:19:07  27.3  27.3  26.4  28.4  66.6  234.7  0.04  4.5  -83  07:19 
 16093  26/08/2026 07:14:24  27.3  27.3  26.0  28.4  66.6  234.8  0.04  4.5  -83  07:14 
 16092  26/08/2026 07:09:41  27.3  27.3  25.8  28.4  66.7  234.5  0.04  4.5  -83  07:09 
 16091  26/08/2026 07:04:55  27.3  27.3  25.7  28.2  66.7  234.4  0.04  4.5  -84  07:04 
 16090  26/08/2026 07:00:10  27.2  27.4  25.5  28.4  66.8  233.4  0.04  4.5  -80  07:00 
 16089  26/08/2026 06:55:27  27.3  27.4  25.3  28.5  66.8  234.7  0.04  4.5  -79  06:55 
 16088  26/08/2026 06:50:39  27.3  27.4  25.2  28.6  67.0  232.4  0.04  4.5  -81  06:50 
 16087  26/08/2026 06:45:56  27.3  27.4  25.1  28.4  66.8  234.2  0.04  4.5  -82  06:45 
 16086  26/08/2026 06:41:12  27.3  27.4  25.2  28.4  66.8  233.6  0.04  4.5  -81  06:41 
 16085  26/08/2026 06:36:29  27.3  27.4  25.4  28.4  66.8  233.3  0.04  4.5  -86  06:36 
 16084  26/08/2026 06:31:45  27.3  27.4  25.3  28.4  66.8  231.3  0.04  4.5  -81  06:31 
 16083  26/08/2026 06:27:02  27.4  27.4  25.0  28.4  66.9  230.5  0.04  4.5  -79  06:27 
 16082  26/08/2026 06:22:10  27.4  27.4  25.1  28.4  67.0  231.0  0.04  4.5  -83  06:22 
 16081  26/08/2026 06:17:27  27.4  27.4  25.2  28.4  67.0  231.7  0.04  4.5  -86  06:17 
 16080  26/08/2026 06:12:43  27.4  27.4  25.2  28.4  66.9  225.9  0.04  4.5  -83  06:12 
 16079  26/08/2026 06:07:46  27.4  27.4  25.2  28.5  66.9  233.2  0.04  4.5  -84  06:07 
 16078  26/08/2026 06:02:54  27.4  27.5  25.4  28.4  66.9  233.1  0.04  4.5  -87  06:02 
 16077  26/08/2026 05:58:10  27.4  27.5  25.5  28.5  66.8  232.9  0.04  4.5  -84  05:58 
 16076  26/08/2026 05:53:27  27.4  27.5  25.4  28.6  67.0  234.0  0.04  4.5  -82  05:53 
 16075  26/08/2026 05:48:44  27.4  27.5  25.5  28.6  67.0  233.3  0.04  4.5  -81  05:48 
 16074  26/08/2026 05:43:59  27.4  27.6  25.4  28.6  66.9  233.2  0.04  4.5  -81  05:43 
 16073  26/08/2026 05:39:16  27.4  27.6  25.4  28.5  66.9  233.6  0.04  4.5  -85  05:39 
 16072  26/08/2026 05:34:32  27.5  27.6  25.4  28.7  67.0  235.0  0.04  4.5  -88  05:34 

Data every 5 minute.


ใช้เวลาประมวลผล 0.02872 วินาที